When you browse on this site, cookies collect data to enhance your experience and personalize the content and advertising you see.
Visit our Privacy Policy to learn more. By continuing to use the site, you agree to this use of cookies and data.

Previsão horária em Molgino

Hoje, 5 Agosto, Quarta-feira

Tempo Temperatura Precipitação Vento Pressão Humidade
00:00 +20°C° 0.7 mm 4 m/s 744 mmHg 86%
01:00 +19°C° 0.7 mm 5 m/s 744 mmHg 90%
02:00 +19°C° 0.7 mm 5 m/s 744 mmHg 95%
03:00 +18°C° 0.9 mm 4 m/s 744 mmHg 96%
04:00 +18°C° 0.9 mm 3 m/s 745 mmHg 96%
05:00 +18°C° 0.9 mm 3 m/s 745 mmHg 97%
06:00 +18°C° 0.4 mm 2 m/s 745 mmHg 97%
07:00 +18°C° 0.4 mm 2 m/s 746 mmHg 97%
08:00 +18°C° 0.4 mm 2 m/s 746 mmHg 97%
09:00 +18°C° 0.1 mm 2 m/s 747 mmHg 94%
10:00 +20°C° 0.1 mm 1 m/s 747 mmHg 92%
11:00 +20°C° 0.1 mm 1 m/s 747 mmHg 90%
12:00 +21°C° 0.1 mm 1 m/s 748 mmHg 86%
13:00 +21°C° 0.1 mm 2 m/s 748 mmHg 81%
14:00 +21°C° 0.1 mm 2 m/s 748 mmHg 77%
15:00 +21°C° 0 mm 2 m/s 748 mmHg 74%
16:00 +23°C° 0 mm 2 m/s 749 mmHg 71%
17:00 +23°C° 0 mm 2 m/s 749 mmHg 69%
18:00 +21°C° 0 mm 1 m/s 749 mmHg 75%
19:00 +20°C° 0 mm 1 m/s 749 mmHg 81%
20:00 +18°C° 0 mm 1 m/s 750 mmHg 87%
21:00 +18°C° 0 mm 1 m/s 750 mmHg 88%
22:00 +16°C° 0 mm 1 m/s 750 mmHg 89%
23:00 +15°C° 0 mm 1 m/s 751 mmHg 90%

Amanhã, 6 Agosto, Quinta-feira

Tempo Temperatura Precipitação Vento Pressão Humidade
00:00 +15°C° 0 mm 1 m/s 751 mmHg 90%
01:00 +14°C° 0 mm 1 m/s 751 mmHg 90%
02:00 +14°C° 0 mm 1 m/s 752 mmHg 90%
03:00 +14°C° 0 mm 1 m/s 752 mmHg 90%
04:00 +13°C° 0 mm 1 m/s 752 mmHg 89%
05:00 +13°C° 0 mm 1 m/s 752 mmHg 88%
06:00 +15°C° 0 mm 1 m/s 752 mmHg 80%
07:00 +18°C° 0 mm 1 m/s 753 mmHg 72%
08:00 +20°C° 0 mm 1 m/s 753 mmHg 64%
09:00 +20°C° 0 mm 2 m/s 753 mmHg 58%
10:00 +21°C° 0 mm 2 m/s 754 mmHg 53%
11:00 +24°C° 0 mm 2 m/s 754 mmHg 47%
12:00 +24°C° 0 mm 2 m/s 754 mmHg 46%
13:00 +25°C° 0 mm 2 m/s 754 mmHg 44%
14:00 +25°C° 0 mm 2 m/s 754 mmHg 43%
15:00 +25°C° 0 mm 2 m/s 754 mmHg 47%
16:00 +25°C° 0 mm 2 m/s 754 mmHg 50%
17:00 +24°C° 0 mm 2 m/s 754 mmHg 53%
18:00 +23°C° 0 mm 2 m/s 754 mmHg 62%
19:00 +21°C° 0 mm 1 m/s 754 mmHg 71%
20:00 +19°C° 0 mm 1 m/s 754 mmHg 80%
21:00 +18°C° 0 mm 1 m/s 754 mmHg 82%
22:00 +15°C° 0 mm 0 m/s 755 mmHg 84%
23:00 +15°C° 0 mm 0 m/s 755 mmHg 87%

Depois de amanhã, 7 Agosto, Sexta-feira

Tempo Temperatura Precipitação Vento Pressão Humidade
00:00 +14°C° 0 mm 0 m/s 755 mmHg 88%
01:00 +14°C° 0 mm 0 m/s 755 mmHg 90%
02:00 +15°C° 0 mm 1 m/s 755 mmHg 91%
03:00 +15°C° 0 mm 1 m/s 755 mmHg 92%
04:00 +15°C° 0 mm 1 m/s 755 mmHg 93%
05:00 +15°C° 0 mm 1 m/s 756 mmHg 94%
06:00 +18°C° 0 mm 1 m/s 756 mmHg 87%
07:00 +20°C° 0 mm 1 m/s 756 mmHg 80%
08:00 +22°C° 0 mm 1 m/s 756 mmHg 73%
09:00 +23°C° 0 mm 1 m/s 756 mmHg 68%
10:00 +24°C° 0 mm 2 m/s 756 mmHg 63%
11:00 +25°C° 0 mm 2 m/s 756 mmHg 58%
12:00 +25°C° 0 mm 2 m/s 756 mmHg 58%
13:00 +26°C° 0 mm 2 m/s 756 mmHg 59%
14:00 +26°C° 0 mm 2 m/s 755 mmHg 59%
15:00 +25°C° 0.3 mm 2 m/s 755 mmHg 67%
16:00 +24°C° 0.3 mm 2 m/s 755 mmHg 75%
17:00 +21°C° 0.3 mm 2 m/s 755 mmHg 82%
18:00 +20°C° 0.1 mm 2 m/s 755 mmHg 86%
19:00 +20°C° 0.1 mm 1 m/s 755 mmHg 90%
20:00 +19°C° 0.1 mm 1 m/s 755 mmHg 95%
21:00 +18°C° 0 mm 1 m/s 755 mmHg 95%
22:00 +18°C° 0 mm 1 m/s 755 mmHg 95%
23:00 +16°C° 0 mm 1 m/s 755 mmHg 96%

8 Agosto, Sábado

Tempo Temperatura Precipitação Vento Pressão Humidade
00:00 +16°C° 0 mm 1 m/s 755 mmHg 96%
01:00 +16°C° 0 mm 1 m/s 755 mmHg 96%
02:00 +15°C° 0 mm 1 m/s 754 mmHg 96%
03:00 +15°C° 0 mm 1 m/s 754 mmHg 96%
04:00 +15°C° 0 mm 1 m/s 754 mmHg 96%
05:00 +15°C° 0 mm 1 m/s 754 mmHg 96%
06:00 +18°C° 0 mm 1 m/s 754 mmHg 92%
07:00 +19°C° 0 mm 1 m/s 754 mmHg 87%
08:00 +21°C° 0 mm 1 m/s 754 mmHg 82%
09:00 +23°C° 0.1 mm 1 m/s 754 mmHg 75%
10:00 +24°C° 0.1 mm 1 m/s 754 mmHg 67%
11:00 +25°C° 0.1 mm 1 m/s 754 mmHg 60%
12:00 +26°C° 0.1 mm 2 m/s 753 mmHg 57%
13:00 +26°C° 0.1 mm 2 m/s 753 mmHg 54%
14:00 +27°C° 0.1 mm 2 m/s 753 mmHg 52%
15:00 +27°C° 0 mm 2 m/s 752 mmHg 53%
16:00 +26°C° 0 mm 1 m/s 752 mmHg 55%
17:00 +26°C° 0 mm 1 m/s 752 mmHg 57%
18:00 +24°C° 0.1 mm 1 m/s 751 mmHg 66%
19:00 +22°C° 0.1 mm 1 m/s 751 mmHg 75%
20:00 +20°C° 0.1 mm 1 m/s 751 mmHg 84%
21:00 +19°C° 0 mm 1 m/s 751 mmHg 87%
22:00 +19°C° 0 mm 1 m/s 751 mmHg 89%
23:00 +18°C° 0 mm 1 m/s 751 mmHg 91%

9 Agosto, Domingo

Tempo Temperatura Precipitação Vento Pressão Humidade
00:00 +16°C° 0 mm 0 m/s 751 mmHg 91%
01:00 +16°C° 0 mm 0 m/s 750 mmHg 90%
02:00 +16°C° 0 mm 0 m/s 750 mmHg 90%
03:00 +15°C° 0 mm 0 m/s 750 mmHg 91%
04:00 +15°C° 0 mm 0 m/s 750 mmHg 93%
05:00 +15°C° 0 mm 0 m/s 750 mmHg 94%
06:00 +17°C° 0 mm 0 m/s 750 mmHg 87%
07:00 +21°C° 0 mm 1 m/s 750 mmHg 81%
08:00 +23°C° 0 mm 1 m/s 749 mmHg 75%
09:00 +23°C° 0.4 mm 1 m/s 749 mmHg 73%
10:00 +24°C° 0.4 mm 1 m/s 749 mmHg 71%
11:00 +25°C° 0.4 mm 1 m/s 749 mmHg 69%
12:00 +25°C° 0.4 mm 2 m/s 749 mmHg 68%
13:00 +25°C° 0.4 mm 2 m/s 748 mmHg 66%
14:00 +26°C° 0.4 mm 2 m/s 748 mmHg 65%
15:00 +25°C° 0.3 mm 2 m/s 748 mmHg 68%
16:00 +24°C° 0.3 mm 2 m/s 748 mmHg 72%
17:00 +24°C° 0.3 mm 2 m/s 747 mmHg 75%
18:00 +21°C° 0 mm 2 m/s 747 mmHg 80%
19:00 +21°C° 0 mm 1 m/s 747 mmHg 85%
20:00 +20°C° 0 mm 1 m/s 747 mmHg 90%
21:00 +19°C° 0 mm 1 m/s 747 mmHg 92%
22:00 +18°C° 0 mm 1 m/s 747 mmHg 93%
23:00 +18°C° 0 mm 1 m/s 747 mmHg 94%

10 Agosto, Segunda-feira

Tempo Temperatura Precipitação Vento Pressão Humidade
00:00 +16°C° 0 mm 1 m/s 747 mmHg 95%
01:00 +16°C° 0 mm 1 m/s 747 mmHg 95%
02:00 +16°C° 0 mm 1 m/s 747 mmHg 95%
03:00 +16°C° 0 mm 1 m/s 747 mmHg 95%
04:00 +15°C° 0 mm 1 m/s 747 mmHg 95%
05:00 +15°C° 0 mm 1 m/s 747 mmHg 94%
06:00 +18°C° 0 mm 1 m/s 747 mmHg 86%
07:00 +20°C° 0 mm 1 m/s 747 mmHg 79%
08:00 +22°C° 0 mm 1 m/s 747 mmHg 71%
09:00 +23°C° 0 mm 2 m/s 747 mmHg 65%
10:00 +24°C° 0 mm 2 m/s 747 mmHg 59%
11:00 +26°C° 0 mm 2 m/s 747 mmHg 53%
12:00 +26°C° 0 mm 2 m/s 747 mmHg 51%
13:00 +27°C° 0 mm 2 m/s 747 mmHg 49%
14:00 +27°C° 0 mm 2 m/s 746 mmHg 48%
15:00 +27°C° 0.1 mm 2 m/s 746 mmHg 52%
16:00 +26°C° 0.1 mm 2 m/s 746 mmHg 57%
17:00 +26°C° 0.1 mm 2 m/s 746 mmHg 61%
18:00 +24°C° 0.5 mm 2 m/s 746 mmHg 72%
19:00 +21°C° 0.5 mm 1 m/s 746 mmHg 82%
20:00 +19°C° 0.5 mm 1 m/s 746 mmHg 93%
21:00 +19°C° 0.1 mm 1 m/s 746 mmHg 94%
22:00 +18°C° 0.1 mm 1 m/s 746 mmHg 95%
23:00 +18°C° 0.1 mm 1 m/s 746 mmHg 97%
Mostrar mais